Tracking 19176 objects as of 26-May-2018
HD Live streaming from Space Station
objects crossing your sky now

LATINSAT B

Track LATINSAT B now!
10-day predictions
LATINSAT B is classified as:


NORAD ID: 27606
Int'l Code: 2002-058B
Perigee: 612.9 km
Apogee: 709.8 km
Inclination: 64.6 °
Period: 97.8 minutes
Semi major axis: 7032 km
RCS: 0.0241 m2 (small)
Launch date: December 20, 2002
Source: Argentina (ARGN)
Launch site: TYURATAM MISSILE AND SPACE COMPLEX (TTMTR)

Nanosatellite; planned constellation of 48 satellites, little LEO; asset tracking and monitoring services.
aabbcc
Your satellite tracking list
Your tracking list is empty




NASA's NSSDC Master Catalog

Two Line Element Set (TLE):
1 27606U 02058B   18145.57805197 -.00000072 +00000-0 +10913-4 0  9995
2 27606 064.5561 223.5970 0068872 343.3643 016.5197 14.72147091828255
Source of the keplerian elements: AFSPC